CW5361 Weather Reports


time (UTC)temp
C
wind
direction
speed
KPH
gust
KPH
rain 1hr
cm
rain 24hr
cm
rain mn
cm
humidity
%
barometer
mb
20190822221556 13 286 1.6 3.2 0.00 0.00 0.00 69 1026.7
20190822220555 13 300 1.6 3.2 0.00 0.00 0.00 68 1026.6
20190822214556 13 89 0.0 3.2 0.00 0.00 0.00 67 1026.7
20190822212555 14 1 1.6 4.8 0.00 0.00 0.00 65 1026.7
20190822210555 15 151 3.2 4.8 0.00 0.00 0.00 62 1026.7
20190822205555 15 63 1.6 4.8 0.00 0.00 0.00 62 1026.8
20190822204555 15 121 1.6 8.0 0.00 0.00 0.00 61 1026.6
20190822201555 15 135 3.2 8.0 0.00 0.00 0.00 58 1026.6
20190822194554 16 108 6.4 8.0 0.00 0.00 0.00 56 1026.6
20190822193554 16 112 3.2 8.0 0.00 0.00 0.00 55 1026.5
20190822190554 16 96 4.8 9.7 0.00 0.00 0.00 52 1025.8
20190822184554 17 117 3.2 8.0 0.00 0.00 0.00 48 1025.9
20190822183554 18 105 3.2 8.0 0.00 0.00 0.00 47 1025.6
20190822182554 19 131 4.8 8.0 0.00 0.00 0.00 44 1025.3
20190822181553 20 141 4.8 6.4 0.00 0.00 0.00 42 1025.0
20190822175553 21 120 4.8 8.0 0.00 0.00 0.00 41 1025.6
20190822174553 21 129 4.8 6.4 0.00 0.00 0.00 40 1025.6
20190822173553 22 117 4.8 8.0 0.00 0.00 0.00 39 1025.4
20190822172553 22 119 3.2 6.4 0.00 0.00 0.00 36 1025.4
20190822171553 22 148 3.2 6.4 0.00 0.00 0.00 38 1025.3
20190822170553 22 105 4.8 6.4 0.00 0.00 0.00 38 1025.2
20190822163557 23 137 4.8 9.7 0.00 0.00 0.00 39 1025.5
20190822161557 23 130 4.8 9.7 0.00 0.00 0.00 33 1025.7
20190822160557 23 114 4.8 9.7 0.00 0.00 0.00 35 1025.5
20190822155557 23 112 4.8 9.7 0.00 0.00 0.00 38 1025.6
20190822154557 23 120 3.2 11.3 0.00 0.00 0.00 32 1025.6
20190822153557 23 72 9.7 17.7 0.00 0.00 0.00 31 1025.7
20190822151557 23 222 1.6 4.8 0.00 0.00 0.00 33 1025.7
20190822150557 23 53 3.2 12.9 0.00 0.00 0.00 29 1025.8
20190822145557 23 56 3.2 14.5 0.00 0.00 0.00 33 1025.7
20190822144557 23 151 1.6 9.7 0.00 0.00 0.00 33 1025.7
20190822142556 23 1 9.7 16.1 0.00 0.00 0.00 34 1025.7
20190822132556 23 63 3.2 8.0 0.00 0.00 0.00 35 1026.1
20190822131556 22 63 8.0 16.1 0.00 0.00 0.00 37 1026.3
20190822130556 22 54 4.8 24.1 0.00 0.00 0.00 38 1026.4
20190822125556 22 74 12.9 20.9 0.00 0.00 0.00 37 1026.2
20190822121555 22 8 4.8 11.3 0.00 0.00 0.00 39 1026.7
20190822115555 21 131 6.4 9.7 0.00 0.00 0.00 41 1026.4
20190822111555 21 103 11.3 19.3 0.00 0.00 0.00 40 1026.7
20190822104555 21 131 4.8 16.1 0.00 0.00 0.00 41 1026.9
20190822101555 20 49 16.1 32.2 0.00 0.00 0.00 41 1027.1
20190822095554 20 20 6.4 24.1 0.00 0.00 0.00 42 1027.3
20190822094554 20 131 8.0 17.7 0.00 0.00 0.00 48 1027.3
20190822093554 19 142 8.0 24.1 0.00 0.00 0.00 48 1027.3
20190822092554 19 68 14.5 20.9 0.00 0.00 0.00 52 1027.4
20190822091600 18 117 8.0 14.5 0.00 0.00 0.00 53 1027.4
20190822090554 19 82 11.3 17.7 0.00 0.00 0.00 53 1027.8
20190822085555 19 79 14.5 24.1 0.00 0.00 0.00 53 1027.6
20190822083555 18 140 6.4 19.3 0.00 0.00 0.00 59 1027.7
20190822082553 18 120 14.5 27.4 0.00 0.00 0.00 57 1027.5
20190822081554 18 123 8.0 11.3 0.00 0.00 0.00 61 1027.5
20190822075555 17 123 8.0 11.3 0.00 0.00 0.00 62 1027.5
20190822074553 17 96 6.4 16.1 0.00 0.00 0.00 63 1027.5
20190822073555 17 113 6.4 16.1 0.00 0.00 0.00 64 1027.5
20190822072553 16 121 4.8 17.7 0.00 0.00 0.00 66 1027.5
20190822070553 15 112 6.4 16.1 0.00 0.00 0.00 70 1027.6
20190822065552 14 125 4.8 16.1 0.00 0.00 0.00 72 1027.4
20190822064552 13 104 4.8 11.3 0.00 0.00 0.00 75 1027.4
20190822063555 13 89 6.4 17.7 0.00 0.00 0.00 79 1027.5
20190822055554 9 117 3.2 6.4 0.00 0.00 0.00 89 1027.4
20190822054552 9 222 3.2 6.4 0.00 0.00 0.00 90 1027.4
20190822053552 9 89 3.2 6.4 0.00 0.00 0.00 90 1027.4
20190822052552 9 331 1.6 3.2 0.00 0.00 0.00 90 1027.4
20190822051552 8 89 0.0 3.2 0.00 0.00 0.00 89 1027.5
20190822050551 8 135 1.6 4.8 0.00 0.00 0.00 89 1027.5
20190822045551 8 314 3.2 4.8 0.00 0.00 0.00 87 1027.3
20190822043552 9 135 1.6 4.8 0.00 0.00 0.00 88 1027.2
20190822042552 9 135 1.6 4.8 0.00 0.00 0.00 88 1027.2
20190822041552 9 124 3.2 8.0 0.00 0.00 0.00 88 1027.2
20190822035551 8 108 1.6 1.6 0.00 0.03 0.00 89 1027.2
20190822025551 9 328 3.2 4.8 0.00 0.03 0.00 87 1027.3
20190822024551 9 304 3.2 4.8 0.00 0.03 0.00 86 1027.3
20190822023551 9 331 1.6 4.8 0.00 0.03 0.00 86 1027.2
20190822022551 9 319 3.2 4.8 0.00 0.03 0.00 85 1027.1
20190822020550 10 314 3.2 3.2 0.00 0.03 0.00 83 1027.1
20190822015555 10 1 1.6 3.2 0.00 0.03 0.00 82 1027.6
20190822013555 10 300 4.8 6.4 0.00 0.03 0.00 80 1027.7
20190822012555 10 15 0.0 4.8 0.00 0.03 0.00 79 1027.7
20190822011555 10 1 0.0 4.8 0.00 0.03 0.00 78 1027.5
20190822005555 11 127 3.2 6.4 0.00 0.03 0.00 75 1027.6
20190822002555 12 89 1.6 4.8 0.00 0.03 0.00 71 1027.7
20190822000554 12 89 1.6 4.8 0.00 0.03 0.00 70 1027.5
20190821234554 12 130 3.2 6.4 0.00 0.03 0.00 70 1027.4
20190821233554 12 89 1.6 4.8 0.00 0.03 0.00 70 1027.6
20190821232554 12 105 1.6 4.8 0.00 0.03 0.00 70 1027.9